Time,TemperatureF,DewpointF,PressureIn,WindDirection,WindDirectionDegrees,WindSpeedMPH,WindSpeedGustMPH,Humidity,HourlyPrecipIn,Conditions,Clouds,dailyrainin,SolarRadiationWatts/m^2,SoftwareType,DateUTC
2013-04-05 00:04:00,53.0,50.1,30.04,SE,127,0.0,5.0,90,0.00,,,0.00,0,Wunderground v.1.15,2013-04-05 07:04:00,
2013-04-05 00:10:00,52.8,49.9,30.04,SE,127,0.0,0.0,90,0.00,,,0.00,0,Wunderground v.1.15,2013-04-05 07:10:00,
2013-04-05 00:16:00,52.7,49.8,30.03,SE,127,0.0,0.0,90,0.00,,,0.00,0,Wunderground v.1.15,2013-04-05 07:16:00,
2013-04-05 00:22:00,52.7,49.8,30.03,SE,127,0.0,0.0,90,0.00,,,0.00,0,Wunderground v.1.15,2013-04-05 07:22:00,
2013-04-05 00:28:00,52.6,49.8,30.03,SE,127,0.0,0.0,90,0.00,,,0.00,0,Wunderground v.1.15,2013-04-05 07:28:00,
2013-04-05 00:38:00,52.5,49.7,30.03,ESE,123,0.0,0.0,90,0.00,,,0.00,0,Wunderground v.1.15,2013-04-05 07:38:00,
2013-04-05 00:44:00,52.4,49.6,30.03,ESE,123,0.0,0.0,90,0.00,,,0.00,0,Wunderground v.1.15,2013-04-05 07:44:00,
2013-04-05 00:50:00,52.3,49.5,30.03,ESE,123,0.0,0.0,90,0.00,,,0.00,0,Wunderground v.1.15,2013-04-05 07:50:00,
2013-04-05 00:56:00,52.1,49.3,30.04,ESE,123,0.0,0.0,90,0.00,,,0.00,0,Wunderground v.1.15,2013-04-05 07:56:00,
2013-04-05 01:02:00,52.0,49.2,30.04,ESE,123,0.0,0.0,90,0.00,,,0.00,0,Wunderground v.1.15,2013-04-05 08:02:00,
2013-04-05 01:08:00,51.8,49.0,30.04,ESE,123,0.0,0.0,90,0.00,,,0.00,0,Wunderground v.1.15,2013-04-05 08:08:00,
2013-04-05 01:14:00,51.7,48.9,30.04,ESE,123,0.0,0.0,90,0.00,,,0.00,0,Wunderground v.1.15,2013-04-05 08:14:00,
2013-04-05 01:20:00,51.6,48.8,30.05,ESE,111,0.0,0.0,90,0.00,,,0.00,0,Wunderground v.1.15,2013-04-05 08:20:00,
2013-04-05 01:26:00,51.7,48.9,30.05,ESE,111,0.0,0.0,90,0.00,,,0.00,0,Wunderground v.1.15,2013-04-05 08:26:00,
2013-04-05 01:32:00,51.7,49.2,30.05,ESE,111,0.0,0.0,91,0.00,,,0.00,0,Wunderground v.1.15,2013-04-05 08:32:00,
2013-04-05 01:38:00,51.7,49.2,30.05,ESE,113,0.0,0.0,91,0.00,,,0.00,0,Wunderground v.1.15,2013-04-05 08:38:00,
2013-04-05 01:44:00,51.6,49.1,30.05,ESE,113,0.0,0.0,91,0.00,,,0.00,0,Wunderground v.1.15,2013-04-05 08:44:00,
2013-04-05 01:50:00,51.5,49.0,30.05,ESE,113,0.0,0.0,91,0.00,,,0.00,0,Wunderground v.1.15,2013-04-05 08:50:00,
2013-04-05 01:56:00,51.4,48.9,30.05,ESE,113,0.0,0.0,91,0.00,,,0.00,0,Wunderground v.1.15,2013-04-05 08:56:00,
2013-04-05 02:02:00,51.3,48.8,30.04,SE,131,0.0,0.0,91,0.00,,,0.00,0,Wunderground v.1.15,2013-04-05 09:02:00,
2013-04-05 02:08:00,51.5,49.0,30.04,SSE,160,0.0,0.0,91,0.00,,,0.00,0,Wunderground v.1.15,2013-04-05 09:08:00,
2013-04-05 02:14:00,51.9,49.4,30.05,South,180,0.0,0.0,91,0.00,,,0.00,0,Wunderground v.1.15,2013-04-05 09:14:00,
2013-04-05 02:20:00,52.0,49.5,30.04,South,180,0.0,0.0,91,0.00,,,0.00,0,Wunderground v.1.15,2013-04-05 09:20:00,
2013-04-05 02:26:00,51.9,49.4,30.04,South,180,0.0,0.0,91,0.00,,,0.00,0,Wunderground v.1.15,2013-04-05 09:26:00,
2013-04-05 02:32:00,51.8,49.3,30.04,South,180,0.0,0.0,91,0.00,,,0.00,0,Wunderground v.1.15,2013-04-05 09:32:00,
2013-04-05 02:38:00,51.7,49.2,30.04,South,180,0.0,0.0,91,0.00,,,0.00,0,Wunderground v.1.15,2013-04-05 09:38:00,
2013-04-05 02:44:00,51.5,49.0,30.04,South,180,0.0,0.0,91,0.00,,,0.00,0,Wunderground v.1.15,2013-04-05 09:44:00,
2013-04-05 02:50:00,51.3,48.8,30.04,South,180,0.0,0.0,91,0.00,,,0.00,0,Wunderground v.1.15,2013-04-05 09:50:00,
2013-04-05 02:58:00,51.1,48.6,30.05,South,180,0.0,0.0,91,0.00,,,0.00,0,Wunderground v.1.15,2013-04-05 09:58:00,
2013-04-05 03:04:00,51.0,48.5,30.04,South,180,0.0,0.0,91,0.00,,,0.00,0,Wunderground v.1.15,2013-04-05 10:04:00,
2013-04-05 03:10:00,50.8,48.3,30.04,South,180,0.0,0.0,91,0.00,,,0.00,0,Wunderground v.1.15,2013-04-05 10:10:00,
2013-04-05 03:16:00,50.8,48.3,30.04,South,180,0.0,0.0,91,0.00,,,0.00,0,Wunderground v.1.15,2013-04-05 10:16:00,
2013-04-05 03:22:00,50.7,48.2,30.05,South,180,0.0,0.0,91,0.00,,,0.00,0,Wunderground v.1.15,2013-04-05 10:22:00,
2013-04-05 03:28:00,50.9,48.4,30.05,South,180,0.0,0.0,91,0.00,,,0.00,0,Wunderground v.1.15,2013-04-05 10:28:00,
2013-04-05 03:34:00,50.9,48.4,30.05,South,180,0.0,0.0,91,0.00,,,0.00,0,Wunderground v.1.15,2013-04-05 10:34:00,
2013-04-05 03:40:00,50.9,48.4,30.06,South,180,0.0,0.0,91,0.00,,,0.00,0,Wunderground v.1.15,2013-04-05 10:40:00,
2013-04-05 03:48:00,50.7,48.2,30.06,South,180,0.0,0.0,91,0.00,,,0.00,0,Wunderground v.1.15,2013-04-05 10:48:00,
2013-04-05 03:56:00,50.5,48.0,30.06,South,180,0.0,0.0,91,0.00,,,0.00,0,Wunderground v.1.15,2013-04-05 10:56:00,
2013-04-05 04:02:00,50.3,47.8,30.05,South,180,0.0,0.0,91,0.00,,,0.00,0,Wunderground v.1.15,2013-04-05 11:02:00,
2013-04-05 04:08:00,50.3,47.8,30.05,South,180,0.0,0.0,91,0.00,,,0.00,0,Wunderground v.1.15,2013-04-05 11:08:00,
2013-04-05 04:14:00,50.1,47.6,30.05,South,180,0.0,0.0,91,0.00,,,0.00,0,Wunderground v.1.15,2013-04-05 11:14:00,
2013-04-05 04:20:00,50.0,47.5,30.05,South,180,0.0,0.0,91,0.00,,,0.00,0,Wunderground v.1.15,2013-04-05 11:20:00,
2013-04-05 04:26:00,49.8,47.3,30.05,South,180,0.0,0.0,91,0.00,,,0.00,0,Wunderground v.1.15,2013-04-05 11:26:00,
2013-04-05 04:32:00,49.7,47.2,30.05,South,180,0.0,0.0,91,0.00,,,0.00,0,Wunderground v.1.15,2013-04-05 11:32:00,
2013-04-05 04:38:00,49.5,47.0,30.05,South,180,0.0,0.0,91,0.00,,,0.00,0,Wunderground v.1.15,2013-04-05 11:38:00,
2013-04-05 04:46:00,49.3,46.8,30.05,South,180,0.0,0.0,91,0.00,,,0.00,0,Wunderground v.1.15,2013-04-05 11:46:00,
2013-04-05 04:52:00,49.1,46.6,30.05,South,180,0.0,0.0,91,0.00,,,0.00,0,Wunderground v.1.15,2013-04-05 11:52:00,
2013-04-05 04:58:00,49.0,46.5,30.05,South,180,0.0,0.0,91,0.00,,,0.00,0,Wunderground v.1.15,2013-04-05 11:58:00,
2013-04-05 05:04:00,49.0,46.5,30.05,South,180,0.0,0.0,91,0.00,,,0.00,0,Wunderground v.1.15,2013-04-05 12:04:00,
2013-04-05 05:10:00,49.1,46.6,30.05,South,180,0.0,0.0,91,0.00,,,0.00,0,Wunderground v.1.15,2013-04-05 12:10:00,
2013-04-05 05:16:00,49.2,46.7,30.05,South,180,0.0,0.0,91,0.00,,,0.00,0,Wunderground v.1.15,2013-04-05 12:16:00,
2013-04-05 05:22:00,49.6,47.4,30.05,South,180,0.0,0.0,92,0.00,,,0.00,0,Wunderground v.1.15,2013-04-05 12:22:00,
2013-04-05 05:28:00,50.1,47.6,30.05,South,180,0.0,0.0,91,0.00,,,0.00,0,Wunderground v.1.15,2013-04-05 12:28:00,
2013-04-05 05:34:00,50.0,47.5,30.05,South,180,0.0,0.0,91,0.00,,,0.00,0,Wunderground v.1.15,2013-04-05 12:34:00,
2013-04-05 05:40:00,49.8,47.3,30.05,South,180,0.0,0.0,91,0.00,,,0.00,0,Wunderground v.1.15,2013-04-05 12:40:00,
2013-04-05 05:46:00,49.6,47.1,30.05,South,180,0.0,0.0,91,0.00,,,0.00,0,Wunderground v.1.15,2013-04-05 12:46:00,
2013-04-05 05:52:00,49.4,46.9,30.05,South,180,0.0,0.0,91,0.00,,,0.00,0,Wunderground v.1.15,2013-04-05 12:52:00,
2013-04-05 05:58:00,49.2,46.7,30.05,South,180,0.0,0.0,91,0.00,,,0.00,0,Wunderground v.1.15,2013-04-05 12:58:00,
2013-04-05 06:08:00,48.9,46.4,30.05,South,180,0.0,0.0,91,0.00,,,0.00,0,Wunderground v.1.15,2013-04-05 13:08:00,
2013-04-05 06:16:00,48.8,46.3,30.05,South,180,0.0,0.0,91,0.00,,,0.00,0,Wunderground v.1.15,2013-04-05 13:16:00,
2013-04-05 06:22:00,48.7,46.2,30.05,South,180,0.0,0.0,91,0.00,,,0.00,0,Wunderground v.1.15,2013-04-05 13:22:00,
2013-04-05 06:28:00,48.5,46.0,30.05,South,180,0.0,0.0,91,0.00,,,0.00,0,Wunderground v.1.15,2013-04-05 13:28:00,
2013-04-05 06:34:00,48.6,46.1,30.05,South,180,0.0,0.0,91,0.00,,,0.00,0,Wunderground v.1.15,2013-04-05 13:34:00,
2013-04-05 06:40:00,48.7,46.2,30.05,South,180,0.0,0.0,91,0.00,,,0.00,0,Wunderground v.1.15,2013-04-05 13:40:00,
2013-04-05 06:46:00,48.7,46.2,30.06,South,180,0.0,0.0,91,0.00,,,0.00,5,Wunderground v.1.15,2013-04-05 13:46:00,
2013-04-05 06:52:00,48.6,46.1,30.05,South,180,0.0,0.0,91,0.00,,,0.00,7,Wunderground v.1.15,2013-04-05 13:52:00,
2013-04-05 06:58:00,48.5,46.0,30.06,South,180,0.0,0.0,91,0.00,,,0.00,12,Wunderground v.1.15,2013-04-05 13:58:00,
2013-04-05 07:04:00,48.4,45.9,30.06,South,180,0.0,0.0,91,0.00,,,0.00,16,Wunderground v.1.15,2013-04-05 14:04:00,
2013-04-05 07:10:00,48.4,45.9,30.06,South,180,0.0,0.0,91,0.00,,,0.00,19,Wunderground v.1.15,2013-04-05 14:10:00,
2013-04-05 07:16:00,48.6,46.1,30.06,South,180,0.0,0.0,91,0.00,,,0.00,23,Wunderground v.1.15,2013-04-05 14:16:00,
2013-04-05 07:22:00,48.7,46.2,30.06,South,180,0.0,0.0,91,0.00,,,0.00,44,Wunderground v.1.15,2013-04-05 14:22:00,
2013-04-05 07:28:00,49.4,46.9,30.06,South,180,0.0,0.0,91,0.00,,,0.00,65,Wunderground v.1.15,2013-04-05 14:28:00,
2013-04-05 07:36:00,50.6,48.4,30.06,South,180,0.0,0.0,92,0.00,,,0.00,86,Wunderground v.1.15,2013-04-05 14:36:00,
2013-04-05 07:42:00,51.5,49.3,30.06,South,180,0.0,0.0,92,0.00,,,0.00,93,Wunderground v.1.15,2013-04-05 14:42:00,
2013-04-05 07:48:00,52.4,50.1,30.07,South,181,0.0,0.0,92,0.00,,,0.00,127,Wunderground v.1.15,2013-04-05 14:48:00,
2013-04-05 07:54:00,52.9,50.6,30.07,South,183,0.0,0.0,92,0.00,,,0.00,144,Wunderground v.1.15,2013-04-05 14:54:00,
2013-04-05 08:00:00,53.6,51.0,30.07,South,188,0.0,0.0,91,0.00,,,0.00,156,Wunderground v.1.15,2013-04-05 15:00:00,
2013-04-05 08:08:00,54.6,52.0,30.07,South,188,0.0,0.0,91,0.00,,,0.00,190,Wunderground v.1.15,2013-04-05 15:08:00,
2013-04-05 08:14:00,55.3,52.7,30.07,South,188,0.0,0.0,91,0.00,,,0.00,223,Wunderground v.1.15,2013-04-05 15:14:00,
2013-04-05 08:20:00,56.0,53.1,30.07,South,188,0.0,0.0,90,0.00,,,0.00,236,Wunderground v.1.15,2013-04-05 15:20:00,
2013-04-05 08:26:00,56.4,53.5,30.07,South,182,0.0,0.0,90,0.00,,,0.00,253,Wunderground v.1.15,2013-04-05 15:26:00,
2013-04-05 08:32:00,57.0,53.8,30.07,SSW,210,0.0,0.0,89,0.00,,,0.00,274,Wunderground v.1.15,2013-04-05 15:32:00,
2013-04-05 08:38:00,57.6,54.1,30.08,South,180,0.0,0.0,88,0.00,,,0.00,292,Wunderground v.1.15,2013-04-05 15:38:00,
2013-04-05 08:44:00,58.0,54.5,30.08,SW,223,0.0,1.0,88,0.00,,,0.00,288,Wunderground v.1.15,2013-04-05 15:44:00,
2013-04-05 08:52:00,58.1,54.2,30.08,South,173,0.0,0.0,87,0.00,,,0.00,352,Wunderground v.1.15,2013-04-05 15:52:00,
2013-04-05 08:58:00,58.5,54.6,30.08,South,171,0.0,0.0,87,0.00,,,0.00,345,Wunderground v.1.15,2013-04-05 15:58:00,
2013-04-05 09:04:00,59.3,55.1,30.08,South,180,0.0,3.0,86,0.00,,,0.00,388,Wunderground v.1.15,2013-04-05 16:04:00,
2013-04-05 09:10:00,59.6,54.8,30.08,SW,235,1.0,1.0,84,0.00,,,0.00,415,Wunderground v.1.15,2013-04-05 16:10:00,
2013-04-05 09:16:00,59.7,54.5,30.08,SW,220,0.0,3.0,83,0.00,,,0.00,309,Wunderground v.1.15,2013-04-05 16:16:00,
2013-04-05 09:22:00,60.0,54.8,30.08,SSW,209,1.0,1.0,83,0.00,,,0.00,441,Wunderground v.1.15,2013-04-05 16:22:00,
2013-04-05 09:28:00,60.3,54.4,30.08,SSW,202,1.0,3.0,81,0.00,,,0.00,506,Wunderground v.1.15,2013-04-05 16:28:00,
2013-04-05 09:34:00,60.9,55.0,30.08,South,184,0.0,4.0,81,0.00,,,0.00,527,Wunderground v.1.15,2013-04-05 16:34:00,
2013-04-05 09:40:00,61.5,54.9,30.08,South,169,0.0,0.0,79,0.00,,,0.00,520,Wunderground v.1.15,2013-04-05 16:40:00,
2013-04-05 09:48:00,61.7,54.4,30.07,SW,225,1.0,1.0,77,0.00,,,0.00,554,Wunderground v.1.15,2013-04-05 16:48:00,
2013-04-05 09:56:00,61.7,54.1,30.08,SSW,213,0.0,2.0,76,0.00,,,0.00,522,Wunderground v.1.15,2013-04-05 16:56:00,
2013-04-05 10:02:00,61.9,53.5,30.07,SSW,211,0.0,5.0,74,0.00,,,0.00,577,Wunderground v.1.15,2013-04-05 17:02:00,
2013-04-05 10:08:00,62.4,53.6,30.07,SW,221,1.0,5.0,73,0.00,,,0.00,580,Wunderground v.1.15,2013-04-05 17:08:00,
2013-04-05 10:14:00,62.7,53.5,30.07,SSW,211,0.0,1.0,72,0.00,,,0.00,455,Wunderground v.1.15,2013-04-05 17:14:00,
2013-04-05 10:20:00,62.7,53.2,30.07,WSW,239,1.0,1.0,71,0.00,,,0.00,429,Wunderground v.1.15,2013-04-05 17:20:00,
2013-04-05 10:28:00,62.5,53.3,30.08,WSW,237,1.0,1.0,72,0.00,,,0.00,385,Wunderground v.1.15,2013-04-05 17:28:00,
2013-04-05 10:34:00,62.5,53.3,30.08,SW,234,0.0,2.0,72,0.00,,,0.00,536,Wunderground v.1.15,2013-04-05 17:34:00,
2013-04-05 10:40:00,63.0,53.1,30.08,WSW,244,1.0,1.0,70,0.00,,,0.00,559,Wunderground v.1.15,2013-04-05 17:40:00,
2013-04-05 10:48:00,63.3,53.7,30.08,WSW,237,0.0,1.0,71,0.00,,,0.00,540,Wunderground v.1.15,2013-04-05 17:48:00,
2013-04-05 10:54:00,63.7,53.3,30.08,WSW,239,0.0,0.0,69,0.00,,,0.00,524,Wunderground v.1.15,2013-04-05 17:54:00,
2013-04-05 11:00:00,63.5,51.9,30.08,SW,221,0.0,0.0,66,0.00,,,0.00,380,Wunderground v.1.15,2013-04-05 18:00:00,
2013-04-05 11:08:00,63.6,52.8,30.08,SSW,204,0.0,6.0,68,0.00,,,0.00,647,Wunderground v.1.15,2013-04-05 18:08:00,
2013-04-05 11:14:00,64.1,52.9,30.09,SSW,204,0.0,0.0,67,0.00,,,0.00,664,Wunderground v.1.15,2013-04-05 18:14:00,
2013-04-05 11:20:00,64.8,54.0,30.09,SSW,198,0.0,0.0,68,0.00,,,0.00,793,Wunderground v.1.15,2013-04-05 18:20:00,
2013-04-05 11:26:00,65.7,54.4,30.09,SSW,200,0.0,0.0,67,0.00,,,0.00,837,Wunderground v.1.15,2013-04-05 18:26:00,
2013-04-05 11:32:00,66.3,54.2,30.09,SE,140,0.0,0.0,65,0.00,,,0.00,744,Wunderground v.1.15,2013-04-05 18:32:00,
2013-04-05 11:38:00,66.1,53.6,30.09,SE,136,0.0,0.0,64,0.00,,,0.00,350,Wunderground v.1.15,2013-04-05 18:38:00,
2013-04-05 11:44:00,65.3,53.2,30.08,SE,134,0.0,0.0,65,0.00,,,0.00,540,Wunderground v.1.15,2013-04-05 18:44:00,
2013-04-05 11:50:00,65.1,53.9,30.08,SE,134,0.0,0.0,67,0.00,,,0.00,283,Wunderground v.1.15,2013-04-05 18:50:00,
2013-04-05 11:58:00,65.5,54.2,30.08,SE,134,0.0,0.0,67,0.00,,,0.00,670,Wunderground v.1.15,2013-04-05 18:58:00,
2013-04-05 12:04:00,65.9,53.4,30.08,ESE,120,0.0,7.0,64,0.00,,,0.00,926,Wunderground v.1.15,2013-04-05 19:04:00,
2013-04-05 12:10:00,66.2,54.9,30.08,SSE,148,0.0,0.0,67,0.00,,,0.00,926,Wunderground v.1.15,2013-04-05 19:10:00,
2013-04-05 12:16:00,66.3,54.2,30.08,SSE,166,1.0,1.0,65,0.00,,,0.00,926,Wunderground v.1.15,2013-04-05 19:16:00,
2013-04-05 12:24:00,66.3,54.6,30.08,SSW,200,1.0,3.0,66,0.00,,,0.00,1025,Wunderground v.1.15,2013-04-05 19:24:00,
2013-04-05 12:30:00,67.2,55.0,30.08,South,183,0.0,1.0,65,0.00,,,0.00,990,Wunderground v.1.15,2013-04-05 19:30:00,
2013-04-05 12:38:00,67.3,53.4,30.08,SW,229,1.0,1.0,61,0.00,,,0.00,188,Wunderground v.1.15,2013-04-05 19:38:00,
2013-04-05 12:44:00,66.8,52.9,30.08,SW,227,2.0,2.0,61,0.00,,,0.00,1042,Wunderground v.1.15,2013-04-05 19:44:00,
2013-04-05 12:50:00,66.5,53.1,30.08,SW,223,1.0,1.0,62,0.00,,,0.00,285,Wunderground v.1.15,2013-04-05 19:50:00,
2013-04-05 12:56:00,67.1,53.2,30.08,SSW,211,1.0,7.0,61,0.00,,,0.00,1085,Wunderground v.1.15,2013-04-05 19:56:00,
2013-04-05 13:02:00,67.4,53.0,30.07,SW,225,5.0,9.0,60,0.00,,,0.00,1083,Wunderground v.1.15,2013-04-05 20:02:00,
2013-04-05 13:08:00,67.5,52.7,30.07,SW,229,5.0,9.0,59,0.00,,,0.00,301,Wunderground v.1.15,2013-04-05 20:08:00,
2013-04-05 13:14:00,67.5,51.7,30.07,SW,218,5.0,10.0,57,0.00,,,0.00,1055,Wunderground v.1.15,2013-04-05 20:14:00,
2013-04-05 13:20:00,68.1,52.3,30.07,SW,227,6.0,6.0,57,0.00,,,0.00,1060,Wunderground v.1.15,2013-04-05 20:20:00,
2013-04-05 13:28:00,68.8,52.5,30.07,West,268,5.0,10.0,56,0.00,,,0.00,429,Wunderground v.1.15,2013-04-05 20:28:00,
2013-04-05 13:34:00,68.3,52.5,30.06,WSW,252,6.0,11.0,57,0.00,,,0.00,434,Wunderground v.1.15,2013-04-05 20:34:00,
2013-04-05 13:40:00,68.3,52.0,30.06,WSW,258,6.0,6.0,56,0.00,,,0.00,501,Wunderground v.1.15,2013-04-05 20:40:00,
2013-04-05 13:48:00,68.9,52.6,30.06,WSW,248,4.0,6.0,56,0.00,,,0.00,937,Wunderground v.1.15,2013-04-05 20:48:00,
2013-04-05 13:56:00,68.9,51.1,30.05,SW,231,5.0,7.0,53,0.00,,,0.00,916,Wunderground v.1.15,2013-04-05 20:56:00,
2013-04-05 14:02:00,69.0,50.6,30.05,WSW,239,5.0,13.0,52,0.00,,,0.00,366,Wunderground v.1.15,2013-04-05 21:02:00,
2013-04-05 14:08:00,68.3,51.0,30.05,SW,225,6.0,13.0,54,0.00,,,0.00,642,Wunderground v.1.15,2013-04-05 21:08:00,
2013-04-05 14:14:00,68.9,52.6,30.05,SW,229,6.0,6.0,56,0.00,,,0.00,1074,Wunderground v.1.15,2013-04-05 21:14:00,
2013-04-05 14:20:00,69.2,51.8,30.05,SW,221,6.0,6.0,54,0.00,,,0.00,909,Wunderground v.1.15,2013-04-05 21:20:00,
2013-04-05 14:28:00,69.1,51.8,30.05,SW,232,5.0,12.0,54,0.00,,,0.00,555,Wunderground v.1.15,2013-04-05 21:28:00,
2013-04-05 14:34:00,68.8,51.0,30.05,WSW,242,5.0,6.0,53,0.00,,,0.00,701,Wunderground v.1.15,2013-04-05 21:34:00,
2013-04-05 14:40:00,68.2,49.9,30.05,SW,234,4.0,6.0,52,0.00,,,0.00,471,Wunderground v.1.15,2013-04-05 21:40:00,
2013-04-05 14:46:00,68.3,50.5,30.05,SW,223,4.0,6.0,53,0.00,,,0.00,459,Wunderground v.1.15,2013-04-05 21:46:00,
2013-04-05 14:52:00,68.1,49.3,30.05,SW,234,3.0,6.0,51,0.00,,,0.00,582,Wunderground v.1.15,2013-04-05 21:52:00,
2013-04-05 14:58:00,68.1,50.3,30.05,SW,221,3.0,9.0,53,0.00,,,0.00,515,Wunderground v.1.15,2013-04-05 21:58:00,
2013-04-05 15:04:00,68.5,50.7,30.05,SW,221,5.0,15.0,53,0.00,,,0.00,715,Wunderground v.1.15,2013-04-05 22:04:00,
2013-04-05 15:10:00,69.0,50.6,30.04,SSW,207,5.0,6.0,52,0.00,,,0.00,729,Wunderground v.1.15,2013-04-05 22:10:00,
2013-04-05 15:16:00,69.4,49.4,30.04,SW,236,4.0,6.0,49,0.00,,,0.00,835,Wunderground v.1.15,2013-04-05 22:16:00,
2013-04-05 15:22:00,69.8,49.8,30.04,SW,232,1.0,2.0,49,0.00,,,0.00,664,Wunderground v.1.15,2013-04-05 22:22:00,
2013-04-05 15:28:00,69.9,49.9,30.03,WSW,240,2.0,6.0,49,0.00,,,0.00,763,Wunderground v.1.15,2013-04-05 22:28:00,
2013-04-05 15:34:00,70.1,51.1,30.04,SW,234,3.0,9.0,51,0.00,,,0.00,740,Wunderground v.1.15,2013-04-05 22:34:00,
2013-04-05 15:40:00,70.1,50.6,30.04,SW,223,2.0,2.0,50,0.00,,,0.00,640,Wunderground v.1.15,2013-04-05 22:40:00,
2013-04-05 15:46:00,69.9,49.9,30.04,NW,315,2.0,6.0,49,0.00,,,0.00,814,Wunderground v.1.15,2013-04-05 22:46:00,
2013-04-05 15:52:00,70.1,51.1,30.03,SW,215,3.0,3.0,51,0.00,,,0.00,367,Wunderground v.1.15,2013-04-05 22:52:00,
2013-04-05 15:58:00,70.4,50.3,30.03,West,259,2.0,3.0,49,0.00,,,0.00,796,Wunderground v.1.15,2013-04-05 22:58:00,
2013-04-05 16:04:00,69.9,50.4,30.03,WSW,241,2.0,14.0,50,0.00,,,0.00,276,Wunderground v.1.15,2013-04-05 23:04:00,
2013-04-05 16:10:00,69.3,49.3,30.03,SW,219,1.0,1.0,49,0.00,,,0.00,566,Wunderground v.1.15,2013-04-05 23:10:00,
2013-04-05 16:16:00,69.1,50.2,30.03,WSW,239,1.0,4.0,51,0.00,,,0.00,318,Wunderground v.1.15,2013-04-05 23:16:00,
2013-04-05 16:22:00,69.0,50.6,30.03,SW,214,2.0,3.0,52,0.00,,,0.00,269,Wunderground v.1.15,2013-04-05 23:22:00,
2013-04-05 16:28:00,68.9,50.0,30.03,SW,220,1.0,3.0,51,0.00,,,0.00,304,Wunderground v.1.15,2013-04-05 23:28:00,
2013-04-05 16:34:00,68.7,50.9,30.02,WSW,246,2.0,4.0,53,0.00,,,0.00,246,Wunderground v.1.15,2013-04-05 23:34:00,
2013-04-05 16:40:00,68.4,50.6,30.03,SW,223,2.0,2.0,53,0.00,,,0.00,244,Wunderground v.1.15,2013-04-05 23:40:00,
2013-04-05 16:48:00,68.6,50.8,30.02,SW,225,1.0,4.0,53,0.00,,,0.00,503,Wunderground v.1.15,2013-04-05 23:48:00,
2013-04-05 16:54:00,69.1,50.7,30.02,WSW,247,3.0,8.0,52,0.00,,,0.00,541,Wunderground v.1.15,2013-04-05 23:54:00,
2013-04-05 17:00:00,68.9,50.5,30.02,SW,230,5.0,5.0,52,0.00,,,0.00,230,Wunderground v.1.15,2013-04-06 00:00:00,
2013-04-05 17:08:00,68.2,50.9,30.03,WSW,254,4.0,10.0,54,0.00,,,0.00,153,Wunderground v.1.15,2013-04-06 00:08:00,
2013-04-05 17:14:00,67.7,50.9,30.03,SW,229,5.0,8.0,55,0.00,,,0.00,165,Wunderground v.1.15,2013-04-06 00:14:00,
2013-04-05 17:20:00,67.4,50.7,30.03,SW,235,5.0,7.0,55,0.00,,,0.00,292,Wunderground v.1.15,2013-04-06 00:20:00,
2013-04-05 17:26:00,67.8,51.5,30.03,SW,232,4.0,7.0,56,0.00,,,0.00,278,Wunderground v.1.15,2013-04-06 00:26:00,
2013-04-05 17:32:00,67.7,51.4,30.03,WSW,246,4.0,7.0,56,0.00,,,0.00,255,Wunderground v.1.15,2013-04-06 00:32:00,
2013-04-05 17:38:00,67.7,51.9,30.03,WSW,237,5.0,7.0,57,0.00,,,0.00,316,Wunderground v.1.15,2013-04-06 00:38:00,
2013-04-05 17:44:00,67.8,52.0,30.02,West,270,4.0,7.0,57,0.00,,,0.00,367,Wunderground v.1.15,2013-04-06 00:44:00,
2013-04-05 17:50:00,67.9,52.1,30.02,WSW,246,5.0,5.0,57,0.00,,,0.00,343,Wunderground v.1.15,2013-04-06 00:50:00,
2013-04-05 17:58:00,67.6,51.3,30.02,WSW,252,5.0,5.0,56,0.00,,,0.00,211,Wunderground v.1.15,2013-04-06 00:58:00,
2013-04-05 18:04:00,67.0,51.7,30.02,SW,234,5.0,11.0,58,0.00,,,0.00,118,Wunderground v.1.15,2013-04-06 01:04:00,
2013-04-05 18:10:00,66.3,51.5,30.02,SW,234,5.0,5.0,59,0.00,,,0.00,130,Wunderground v.1.15,2013-04-06 01:10:00,
2013-04-05 18:16:00,66.0,51.7,30.02,WSW,246,3.0,5.0,60,0.00,,,0.00,98,Wunderground v.1.15,2013-04-06 01:16:00,
2013-04-05 18:22:00,65.8,52.4,30.02,WSW,250,2.0,2.0,62,0.00,,,0.00,84,Wunderground v.1.15,2013-04-06 01:22:00,
2013-04-05 18:28:00,65.5,52.1,30.02,WSW,249,2.0,3.0,62,0.00,,,0.00,62,Wunderground v.1.15,2013-04-06 01:28:00,
2013-04-05 18:38:00,65.1,52.6,30.03,WSW,244,2.0,6.0,64,0.00,,,0.00,46,Wunderground v.1.15,2013-04-06 01:38:00,
2013-04-05 18:44:00,64.7,52.2,30.03,SW,229,2.0,3.0,64,0.00,,,0.00,33,Wunderground v.1.15,2013-04-06 01:44:00,
2013-04-05 18:50:00,64.4,52.8,30.02,WSW,238,2.0,4.0,66,0.00,,,0.00,23,Wunderground v.1.15,2013-04-06 01:50:00,
2013-04-05 18:56:00,64.0,52.8,30.02,SW,233,2.0,5.0,67,0.00,,,0.00,19,Wunderground v.1.15,2013-04-06 01:56:00,
2013-04-05 19:02:00,63.6,52.8,30.02,SW,227,1.0,11.0,68,0.00,,,0.00,21,Wunderground v.1.15,2013-04-06 02:02:00,
2013-04-05 19:08:00,63.3,52.6,30.01,SW,226,0.0,11.0,68,0.00,,,0.00,21,Wunderground v.1.15,2013-04-06 02:08:00,
2013-04-05 19:14:00,63.1,52.8,30.01,SW,227,0.0,0.0,69,0.00,,,0.00,18,Wunderground v.1.15,2013-04-06 02:14:00,
2013-04-05 19:20:00,63.0,52.3,30.01,SW,219,0.0,0.0,68,0.00,,,0.00,11,Wunderground v.1.15,2013-04-06 02:20:00,
2013-04-05 19:28:00,62.7,52.0,30.02,WSW,243,1.0,1.0,68,0.00,,,0.00,5,Wunderground v.1.15,2013-04-06 02:28:00,
2013-04-05 19:34:00,62.4,52.1,30.01,SW,228,1.0,1.0,69,0.00,,,0.00,0,Wunderground v.1.15,2013-04-06 02:34:00,
2013-04-05 19:40:00,62.1,51.8,30.02,SW,228,0.0,0.0,69,0.00,,,0.00,0,Wunderground v.1.15,2013-04-06 02:40:00,
2013-04-05 19:46:00,61.8,52.3,30.02,WSW,237,0.0,1.0,71,0.00,,,0.00,0,Wunderground v.1.15,2013-04-06 02:46:00,
2013-04-05 19:52:00,61.6,52.5,30.02,SW,220,2.0,7.0,72,0.00,,,0.00,0,Wunderground v.1.15,2013-04-06 02:52:00,
2013-04-05 19:58:00,61.4,52.3,30.02,WSW,241,4.0,7.0,72,0.00,,,0.00,0,Wunderground v.1.15,2013-04-06 02:58:00,
2013-04-05 20:04:00,61.3,52.6,30.03,SW,217,2.0,10.0,73,0.00,,,0.00,0,Wunderground v.1.15,2013-04-06 03:04:00,
2013-04-05 20:10:00,61.1,52.4,30.03,WSW,240,2.0,2.0,73,0.00,,,0.00,0,Wunderground v.1.15,2013-04-06 03:10:00,
2013-04-05 20:16:00,60.9,52.6,30.02,SW,223,2.0,3.0,74,0.00,,,0.00,0,Wunderground v.1.15,2013-04-06 03:16:00,
2013-04-05 20:22:00,60.7,52.4,30.03,SW,227,2.0,5.0,74,0.00,,,0.00,0,Wunderground v.1.15,2013-04-06 03:22:00,
2013-04-05 20:28:00,60.5,52.5,30.03,SW,220,1.0,5.0,75,0.00,,,0.00,0,Wunderground v.1.15,2013-04-06 03:28:00,
2013-04-05 20:34:00,60.3,52.7,30.03,SW,226,0.0,1.0,76,0.00,,,0.00,0,Wunderground v.1.15,2013-04-06 03:34:00,
2013-04-05 20:40:00,59.9,52.7,30.03,SW,214,0.0,0.0,77,0.00,,,0.00,0,Wunderground v.1.15,2013-04-06 03:40:00,
2013-04-05 20:48:00,59.5,52.3,30.04,SW,234,0.0,0.0,77,0.00,,,0.00,0,Wunderground v.1.15,2013-04-06 03:48:00,
2013-04-05 20:54:00,59.3,52.1,30.04,SW,226,1.0,4.0,77,0.00,,,0.00,0,Wunderground v.1.15,2013-04-06 03:54:00,
2013-04-05 21:00:00,59.2,52.0,30.04,SW,221,1.0,1.0,77,0.00,,,0.00,0,Wunderground v.1.15,2013-04-06 04:00:00,
2013-04-05 21:02:00,59.1,51.9,30.04,SW,218,0.0,10.0,77,0.00,,,0.00,0,Wunderground v.1.15,2013-04-06 04:02:00,
2013-04-05 21:06:00,59.0,52.1,30.04,SSW,199,0.0,10.0,78,0.00,,,0.00,0,Wunderground v.1.15,2013-04-06 04:06:00,
2013-04-05 21:12:00,58.6,52.1,30.04,SSW,199,0.0,0.0,79,0.00,,,0.00,0,Wunderground v.1.15,2013-04-06 04:12:00,
2013-04-05 21:18:00,58.5,52.0,30.05,SSW,213,0.0,0.0,79,0.00,,,0.00,0,Wunderground v.1.15,2013-04-06 04:18:00,
2013-04-05 21:24:00,58.2,52.1,30.05,SW,215,0.0,0.0,80,0.00,,,0.00,0,Wunderground v.1.15,2013-04-06 04:24:00,
2013-04-05 21:30:00,58.0,51.9,30.05,SSW,209,0.0,0.0,80,0.00,,,0.00,0,Wunderground v.1.15,2013-04-06 04:30:00,
2013-04-05 21:36:00,58.0,51.5,30.05,SW,228,0.0,0.0,79,0.00,,,0.00,0,Wunderground v.1.15,2013-04-06 04:36:00,
2013-04-05 21:42:00,57.8,51.3,30.05,SW,218,0.0,0.0,79,0.00,,,0.00,0,Wunderground v.1.15,2013-04-06 04:42:00,
2013-04-05 21:48:00,57.5,51.4,30.05,SW,218,0.0,0.0,80,0.00,,,0.00,0,Wunderground v.1.15,2013-04-06 04:48:00,
2013-04-05 21:56:00,57.2,51.1,30.06,SW,218,0.0,0.0,80,0.00,,,0.00,0,Wunderground v.1.15,2013-04-06 04:56:00,
2013-04-05 22:02:00,56.9,51.1,30.06,SW,215,0.0,8.0,81,0.00,,,0.00,0,Wunderground v.1.15,2013-04-06 05:02:00,
2013-04-05 22:08:00,56.7,50.9,30.06,SW,214,0.0,8.0,81,0.00,,,0.00,0,Wunderground v.1.15,2013-04-06 05:08:00,
2013-04-05 22:14:00,56.4,50.6,30.06,SW,215,0.0,0.0,81,0.00,,,0.00,0,Wunderground v.1.15,2013-04-06 05:14:00,
2013-04-05 22:20:00,56.2,50.8,30.07,SW,235,0.0,0.0,82,0.00,,,0.00,0,Wunderground v.1.15,2013-04-06 05:20:00,
2013-04-05 22:26:00,56.1,50.7,30.07,SW,229,0.0,1.0,82,0.00,,,0.00,0,Wunderground v.1.15,2013-04-06 05:26:00,
2013-04-05 22:32:00,56.0,50.6,30.07,SW,228,0.0,0.0,82,0.00,,,0.00,0,Wunderground v.1.15,2013-04-06 05:32:00,
2013-04-05 22:38:00,56.0,50.6,30.07,WSW,238,1.0,1.0,82,0.00,,,0.00,0,Wunderground v.1.15,2013-04-06 05:38:00,
2013-04-05 22:44:00,55.9,50.5,30.06,WSW,246,1.0,1.0,82,0.00,,,0.00,0,Wunderground v.1.15,2013-04-06 05:44:00,
2013-04-05 22:50:00,55.9,50.5,30.06,SW,234,1.0,1.0,82,0.00,,,0.00,0,Wunderground v.1.15,2013-04-06 05:50:00,
2013-04-05 22:56:00,55.7,50.3,30.06,SW,234,0.0,1.0,82,0.00,,,0.00,0,Wunderground v.1.15,2013-04-06 05:56:00,
2013-04-05 23:02:00,55.4,50.3,30.07,SW,234,0.0,6.0,83,0.00,,,0.00,0,Wunderground v.1.15,2013-04-06 06:02:00,
2013-04-05 23:08:00,55.2,50.1,30.06,SW,234,0.0,6.0,83,0.00,,,0.00,0,Wunderground v.1.15,2013-04-06 06:08:00,
2013-04-05 23:14:00,55.0,49.9,30.06,SW,234,0.0,0.0,83,0.00,,,0.00,0,Wunderground v.1.15,2013-04-06 06:14:00,
2013-04-05 23:20:00,54.9,49.8,30.06,SW,234,0.0,0.0,83,0.00,,,0.00,0,Wunderground v.1.15,2013-04-06 06:20:00,
2013-04-05 23:26:00,54.8,50.1,30.07,SW,234,0.0,0.0,84,0.00,,,0.00,0,Wunderground v.1.15,2013-04-06 06:26:00,
2013-04-05 23:32:00,54.6,49.9,30.07,SW,234,0.0,0.0,84,0.00,,,0.00,0,Wunderground v.1.15,2013-04-06 06:32:00,
2013-04-05 23:38:00,54.4,49.7,30.07,SW,234,0.0,0.0,84,0.00,,,0.00,0,Wunderground v.1.15,2013-04-06 06:38:00,
2013-04-05 23:44:00,54.3,49.6,30.07,SW,234,0.0,0.0,84,0.00,,,0.00,0,Wunderground v.1.15,2013-04-06 06:44:00,
2013-04-05 23:50:00,54.1,49.4,30.06,SW,234,0.0,0.0,84,0.00,,,0.00,0,Wunderground v.1.15,2013-04-06 06:50:00,
2013-04-05 23:56:00,54.0,49.6,30.06,SW,234,0.0,0.0,85,0.00,,,0.00,0,Wunderground v.1.15,2013-04-06 06:56:00,